Regional Weather Roundup
Issued by NWS

Home | Current Version | Previous Version | Graphics & Text | Print | Product List | Glossary On
Versions: 1 2 3 4 5 6 7 8 9 10 11 12 13 14 15 16 17 18 19 20 21 22 23 24 25 26 27 28 29 30 31 32 33 34 35 36 37 38 39 40 41 42 43 44 45 46 47 48 49 50
000
ASUS43 KLSX 040607
RWRMO

WEATHER SUMMARY FOR MISSOURI
NATIONAL WEATHER SERVICE SPRINGFIELD MO
100 AM CDT WED MAY 04 2016

NOTE: "FAIR" INDICATES FEW OR NO CLOUDS BELOW 12,000 FEET WITH NO
       SIGNIFICANT WEATHER AND/OR OBSTRUCTIONS TO VISIBILITY.
       CURRENT SKY AND/OR WEATHER CONDITIONS ARE NOT AVAILABLE FOR
       CHILLICOTHE AND FARMINGTON.

MOZ001>031-035>038-043-044-053-054-040700-
...NORTHERN AND WESTERN MISSOURI...

CITY           SKY/WX    TMP DP  RH WIND       PRES   REMARKS
KANSAS CTY INT CLEAR     54  43  66 SW9       29.89F
6HR MIN TEMP:  54; 6HR MAX TEMP:  67;

KANSAS C DTWN  CLEAR     55  46  71 SW6       29.89F
6HR MIN TEMP:  55; 6HR MAX TEMP:  69;

LEE`S SUMMIT   CLEAR     55  45  68 SW8       29.90F
6HR MIN TEMP:  55; 6HR MAX TEMP:  68;

ST JOSEPH      CLEAR     58  43  57 W9        29.87F
6HR MIN TEMP:  56; 6HR MAX TEMP:  69;

CHILLICOTHE      N/A     56  45  66 S3        29.84F
6HR MIN TEMP:  53; 6HR MAX TEMP:  67;

KIRKSVILLE     CLOUDY    57  42  57 SW9       29.79F
6HR MIN TEMP:  55; 6HR MAX TEMP:  65;


$$
MOZ066>068-077>081-088>096-101>105-040700-
...SOUTHWEST MISSOURI...

CITY           SKY/WX    TMP DP  RH WIND       PRES   REMARKS
SPRINGFIELD    PTCLDY    51  41  68 SW8       29.96S
6HR MIN TEMP:  49; 6HR MAX TEMP:  64;

JOPLIN         PTCLDY    55  46  71 SW10      29.97F
6HR MIN TEMP:  50; 6HR MAX TEMP:  66;


$$
MOZ032>034-039>042-045>050-055>058-069>072-040700-
...CENTRAL MISSOURI...

CITY           SKY/WX    TMP DP  RH WIND       PRES   REMARKS
COLUMBIA       MOCLDY    54  43  66 SW12      29.86F
6HR MIN TEMP:  52; 6HR MAX TEMP:  64;

JEFFERSON CITY CLOUDY    55  43  63 CALM      29.88F
6HR MIN TEMP:  51; 6HR MAX TEMP:  65;

ROLLA          CLEAR     48  40  73 SW10      29.89F
6HR MIN TEMP:  46; 6HR MAX TEMP:  62;

SEDALIA        MOCLDY    56  45  66 SW10      29.90F
6HR MIN TEMP:  55; 6HR MAX TEMP:  66;

WHITEMAN AFB   CLEAR     56  45  66 SW9       29.88F
WARRENSBURG    PTCLDY    55  45  67 SW10      29.89F
OSAGE BEACH    CLEAR     52  37  58 SW3       29.92F

$$
MOZ051-052-059>065-040700-
...EAST CENTRAL MISSOURI...

CITY           SKY/WX    TMP DP  RH WIND       PRES   REMARKS
ST LOUIS INTL  PTCLDY    56  42  59 SW14      29.85F
6HR MIN TEMP:  56; 6HR MAX TEMP:  64;

SPIRIT OF STL  CLEAR     52  43  71 W7        29.85F
6HR MIN TEMP:  51; 6HR MAX TEMP:  62;

ST CHARLES     CLEAR     53  45  74 VRB3      29.83F
6HR MIN TEMP:  53; 6HR MAX TEMP:  63;


$$
MOZ072>076-082>087-097>100-106>115-040700-
...SOUTH CENTRAL AND SOUTHEAST MISSOURI...

CITY           SKY/WX    TMP DP  RH WIND       PRES   REMARKS
CAPE GIRARDEAU CLEAR     48  46  93 CALM      29.92F
6HR MIN TEMP:  47; 6HR MAX TEMP:  62;

FARMINGTON     CLEAR     45  44  97 CALM      29.91F FOG
6HR MIN TEMP:  45; 6HR MAX TEMP:  60;

POPLAR BLUFF   CLEAR     52  49  89 CALM      29.93F
6HR MIN TEMP:  51; 6HR MAX TEMP:  65;

WEST PLAINS    CLEAR     48  40  73 W3        29.97S
6HR MIN TEMP:  46; 6HR MAX TEMP:  63;


$$



USA.gov is the U.S. government's official web portal to all federal, state and local government web resources and services.